Zurück zum Katalog

STARLINK-2491

AktivKommunikationVLEO
NORAD 48148·PAYLOAD·🇺🇸 United States

Gestartet Apr 7, 2021 von Cape Canaveral Space Force Station

Loading…

Nächste Überflüge (nächste 24 Stunden)

TLE

AktuellSource: CelesTrak SupGP

Epoche: Sep 14, 2026, 20:22 UTC

1 48148C 21027BJ  26257.84909722  .00000484  00000+0  15558-4 0  2570
2 48148  53.1582   5.4085 0001153  83.0639 176.5517 15.31706110    10

Verfolge STARLINK-2491 in Echtzeit mit AllMySat

Download on the App Store